Regional Weather Roundup
Issued by NWS

Home | Current Version | Previous Version | Graphics & Text | Print | Product List | Glossary On
Versions: 1 2 3 4 5 6 7 8 9 10 11 12 13 14 15 16 17 18 19 20 21 22 23 24 25 26 27 28 29 30 31 32 33 34 35 36 37 38 39 40 41 42 43 44 45 46 47 48 49 50
232
ASUS43 KBIS 201902
RWRND

NORTH DAKOTA REGIONAL WEATHER ROUNDUP
NATIONAL WEATHER SERVICE BISMARCK ND
100 PM CST MON FEB 20 2017

NOTE: "FAIR" INDICATES FEW OR NO CLOUDS BELOW 12,000 FEET WITH NO
SIGNIFICANT WEATHER AND/OR OBSTRUCTIONS TO VISIBILITY.


NDZ001>003-009>011-017-202000-
NORTHWEST NORTH DAKOTA

CITY           SKY/WX    TMP DP  RH WIND       PRES   REMARKS
WILLISTON      FAIR      43  32  65 W14       29.72S
MINOT          FAIR      45  37  73 W13       29.67F
MINOT AFB      MOSUNNY   41  37  83 W8        29.66F
$$

NDZ018>021-031>035-040>046-202000-
SOUTHWEST NORTH DAKOTA

CITY           SKY/WX    TMP DP  RH WIND       PRES   REMARKS
BISMARCK       FAIR      46  37  71 NW13      29.72S
DICKINSON      FAIR      51  31  46 W15       29.73S
GARRISON         N/A     43  36  76 NW13      29.69F
HETTINGER ARPT SUNNY     52  34  50 NW16      29.77F
$$

NDZ004>008-012>016-024-026-027-054-202000-
NORTHEAST NORTH DAKOTA

CITY           SKY/WX    TMP DP  RH WIND       PRES   REMARKS
GRAND FORKS    RAIN      37  33  85 NW13      29.60S FOG
GRND FRKS AFB  LGT RAIN  37  37 100 NW12      29.61R
DEVILS LAKE    LGT RAIN  34  33  96 NW14      29.64F
$$

NDZ022-023-025-028>030-036>039-047>053-202000-
SOUTHEAST NORTH DAKOTA

CITY           SKY/WX    TMP DP  RH WIND       PRES   REMARKS
FARGO          CLOUDY    42  41  96 NW14      29.60F FOG
JAMESTOWN      RAIN      35  34  96 NW13      29.65F FOG
$$





USA.gov is the U.S. government's official web portal to all federal, state and local government web resources and services.